Flag for Brazil Weather past 2 weeks in Belém, Pará, Brazil

Now
75 °F

Clear.


Feels Like: 74 °F
Forecast: 74 / 87 °F
Wind: 6 mph from East

Location: Belem Aeroporto

Current Time: Jul 3, 2015 at 4:21:51 AM

Latest Report: Jul 3, 2015 at 4:00 AM


Visibility: 10 mi

Pressure: 29.89 "Hg

Humidity: 94%

Dew point: 73 °F

Location of BelémLocation

Historic Weather in Belém — Graph

°F

Belém temperature yesterday

Maximum temperature yesterday: 86 °F (at 11:00 AM)
Minimum temperature yesterday: 75 °F (at 12:00 AM)
Average temperature yesterday: 78 °F

Past Weeks' High & Low Weather Summary

 TemperatureHumidityPressure
High90 °F (Jun 18, 3:00 PM)100% (Jun 22, 4:00 PM)30.04 "Hg (Jun 22, 4:00 PM)
Low73 °F (Jun 21, 1:00 AM)52% (Jun 19, 1:00 PM)29.83 "Hg (Jul 2, 3:00 PM)
Average80 °F81%29.95 "Hg
* Reported Jun 18 3:00 AM — Jul 3 3:00 AM, Belém, Weather by CustomWeather, © 2015

Note: Actual official high and low records may vary slightly from our data, if they occured in-between our weather recording intervals... More about our weather records

Advertising

Belém weather history for previous 24 hours

 ConditionsComfort  
Time TempWeatherWind HumidityBarometerVisibility
3:00 AM
Fri, Jul 3
75 °FPassing clouds.5 mph94%29.89 "HgN/A
2:00 AM75 °FPassing clouds.5 mph94%29.89 "HgN/A
1:00 AM75 °FPassing clouds.6 mph94%29.92 "HgN/A
12:00 AM77 °FPassing clouds.8 mph83%29.92 "HgN/A
11:00 PM
Thu, Jul 2
77 °FPassing clouds.7 mph89%29.92 "HgN/A
10:00 PM77 °FPassing clouds.6 mph89%29.92 "HgN/A
9:00 PM77 °FPassing clouds.7 mph89%29.92 "HgN/A
8:00 PM77 °FPassing clouds.5 mph89%29.89 "HgN/A
7:00 PM77 °FPartly cloudy.5 mph89%29.86 "HgN/A
6:00 PM77 °FBroken clouds.7 mph89%29.86 "HgN/A
5:00 PM81 °FLight rain. Scattered clouds.7 mph84%29.83 "HgN/A
4:00 PM81 °FBroken clouds.3 mph84%29.86 "HgN/A
3:00 PM77 °FBroken clouds.9 mph89%29.83 "HgN/A
2:00 PM84 °FPartly sunny.1 mph70%29.86 "HgN/A
1:00 PM79 °FHeavy rain. Partly sunny.6 mph84%29.89 "Hg2 mi
12:00 PM86 °FLight rain. Partly sunny.8 mph70%29.92 "HgN/A
11:00 AM86 °FPartly sunny.8 mph70%29.95 "HgN/A
10:00 AM84 °FPartly sunny.10 mph74%29.95 "HgN/A
9:00 AM82 °FScattered clouds.10 mph79%29.95 "HgN/A
8:00 AM79 °FScattered clouds.8 mph89%29.92 "HgN/A
7:00 AM75 °FScattered clouds.7 mph94%29.92 "HgN/A
6:00 AM75 °FClear.6 mph94%29.89 "Hg10 mi
5:00 AM75 °FClear.7 mph94%29.86 "Hg10 mi
4:00 AM75 °FClear.8 mph94%29.86 "Hg10 mi
Weather by CustomWeather, © 2015

See weather overviewHow to use our weather pages